RH
12 6 6 7 4 2 3 6 2 1 1 1 1 1 1 2 2 2 2 2 2 3 3 3 3 3 3 3 3 3 3 3 2 2 2 2 2 2 2 2 3 3 4 5 8
6 6 6 4 3 3 5 4 1 1 1 1 1 1 1 1 2 2 2 2 2 2 3 3 2 3 3 3 3 2 2 2 2 2 2 2 2 2 3 4 5 6 6 7 10
6 6 4 3 3 4 7 2 2 2 1 1 1 1 1 1 2 2 2 2 2 2 2 2 3 3 2 2 2 2 2 2 2 2 2 2 2 4 6 7 8 8 10 11 13
5 3 3 3 4 7 5 2 2 1 1 1 1 1 1 2 2 2 2 2 2 2 2 2 2 2 2 2 2 2 2 2 3 4 4 5 6 8 8 10 12 13 14 14 13
4 4 3 4 6 7 3 2 1 1 1 1 1 1 1 2 2 2 2 2 2 2 2 2 2 2 2 2 3 5 9 11 12 10 9 9 8 10 12 15 14 14 13 13 15
4 4 4 6 9 7 3 2 2 1 1 1 1 1 2 2 2 1 1 1 1 1 1 2 3 5 8 12 16 20 20 16 13 11 9 10 13 15 16 14 14 16 18 20 21
4 4 6 9 11 8 4 2 2 1 1 1 1 2 2 2 1 1 1 1 1 1 3 6 11 16 18 21 21 21 18 15 12 11 13 16 17 17 18 18 19 20 19 19 19
5 5 7 12 10 9 7 3 2 1 1 1 2 2 2 2 1 1 1 1 1 3 9 14 17 18 20 21 21 19 16 13 12 15 16 16 15 20 16 16 15 15 16 17 18
7 6 11 13 12 12 9 4 2 1 1 1 2 2 2 2 2 1 1 1 2 9 15 17 17 18 19 21 20 16 13 13 16 16 16 13 9 14 12 14 15 16 16 17 18
8 12 14 14 15 13 8 5 2 2 2 2 2 2 2 2 2 1 1 1 6 14 17 15 18 19 20 19 16 14 14 15 14 13 10 12 13 15 16 15 14 14 15 16 19
12 15 16 16 16 11 7 6 3 2 2 2 2 2 2 2 2 2 1 2 13 16 16 15 18 17 16 17 16 16 16 12 10 11 12 12 12 11 11 13 13 13 14 17 19
14 15 15 16 16 11 7 4 3 2 2 2 1 1 2 1 1 1 2 6 16 17 14 16 16 15 14 15 16 14 10 10 11 12 12 11 12 12 12 14 14 15 16 17 17
14 14 14 18 16 13 6 3 3 2 2 2 2 2 2 2 2 2 3 15 18 17 14 14 14 13 13 14 13 11 10 10 12 11 12 13 14 13 14 15 16 17 19 20 20
14 14 16 19 19 17 9 6 4 3 3 3 3 2 2 2 2 3 10 17 18 16 13 13 14 13 13 11 11 11 11 12 12 13 14 13 13 14 16 17 18 21 23 26 26
18 19 20 19 21 19 17 16 15 12 6 8 6 5 5 5 4 5 12 18 19 15 13 16 13 13 13 12 11 12 12 13 14 13 13 12 12 15 16 17 20 21 23 26 28
22 22 22 22 21 22 21 22 23 20 15 10 11 10 8 7 6 11 19 18 20 17 13 13 12 12 12 12 12 13 14 15 15 14 14 11 13 15 17 19 21 22 24 26 29
21 23 22 21 22 24 23 22 23 22 23 16 13 17 15 14 14 18 19 19 20 17 14 14 13 12 12 12 14 14 15 15 15 12 12 12 12 15 18 19 20 20 18 22 19
15 18 20 22 21 24 25 23 21 21 22 21 18 16 17 18 19 20 20 19 22 20 15 13 14 14 13 13 13 15 16 15 13 12 12 14 13 13 14 15 16 16 16 14 16
10 12 15 16 20 21 23 24 24 23 22 21 21 21 21 20 20 19 19 18 20 21 19 15 14 15 13 13 14 15 15 14 13 12 12 12 15 12 14 16 18 18 18 17 15
11 11 12 12 14 17 20 22 23 26 24 24 22 20 21 21 21 21 19 21 20 22 21 20 15 16 14 14 15 15 15 14 14 13 12 11 13 13 13 14 17 17 19 20 19
17 15 14 12 10 12 15 20 21 29 25 24 25 24 25 23 22 22 22 22 23 24 23 21 18 17 15 16 17 16 15 15 14 14 14 13 12 15 14 17 19 18 17 17 20
26 25 22 18 13 10 11 14 19 23 22 23 25 25 25 25 26 26 26 26 24 26 22 23 21 15 15 17 15 16 16 16 15 15 15 14 12 16 15 16 17 20 21 19 20
31 30 29 26 24 21 16 12 14 17 22 22 24 27 27 27 26 26 27 28 29 29 25 24 23 21 14 16 16 16 19 19 16 15 15 16 17 14 18 18 19 19 18 19 21
33 32 32 30 28 25 23 21 16 14 15 18 22 26 28 28 27 25 29 30 30 31 32 26 22 27 18 18 16 16 17 18 16 15 17 14 19 19 22 20 21 19 19 19 18
59 49 37 34 33 33 27 22 21 20 17 16 17 25 29 28 28 29 28 32 32 34 34 33 25 25 23 22 19 14 13 13 14 18 16 17 19 20 20 20 22 23 22 21 19
63 61 61 56 44 35 35 35 30 22 20 20 18 19 20 25 32 28 32 32 32 34 36 38 31 27 25 26 23 20 16 13 13 14 16 20 16 23 21 22 22 22 20 20 21
28 32 49 56 56 56 49 39 40 37 30 24 22 22 23 30 31 32 31 34 34 35 35 36 41 40 28 25 27 24 22 17 13 14 17 17 18 19 19 21 22 20 22 20 19
Wind_Speed
10 9 8 6 7 7 7 4 4 8 11 15 18 17 16 14 13 13 13 12 10 10 9 9 8 5 4 2 3 4 6 8 9 9 10 11 13 14 14 15 16 17 17 16 18
10 10 7 7 7 8 7 4 7 10 13 16 18 17 15 13 12 10 10 8 7 6 5 5 3 2 2 4 6 8 10 12 13 13 14 14 15 15 15 16 17 18 18 18 19
11 10 8 9 8 8 5 5 9 11 13 16 16 15 14 11 9 7 6 4 3 1 2 3 4 6 8 10 11 12 14 14 15 15 15 15 14 14 15 16 16 17 19 19 21
12 10 10 10 10 7 5 7 10 12 14 15 15 13 13 11 8 6 3 0 1 4 6 8 10 11 12 13 13 14 15 15 15 14 13 13 13 14 14 15 16 17 19 20 22
11 10 10 11 10 6 6 8 11 13 15 15 14 13 12 9 5 3 1 3 6 8 9 11 13 13 13 13 13 12 12 12 12 12 11 12 12 13 15 15 17 18 19 20 23
11 11 12 11 8 6 5 9 13 15 16 15 14 13 11 7 4 2 4 6 9 10 11 11 11 11 10 11 10 11 11 10 10 9 9 10 11 13 15 15 16 17 19 21 24
12 12 12 10 7 5 5 9 13 15 15 16 15 13 9 5 5 4 7 9 11 11 10 9 10 10 10 10 10 10 10 10 8 8 9 12 13 15 15 16 17 17 20 22 25
13 12 11 9 7 6 4 9 14 16 16 17 16 13 10 8 6 7 10 11 11 8 8 9 10 10 9 8 9 9 9 8 7 9 11 14 13 15 15 16 17 19 21 24 25
12 12 11 8 6 4 4 8 12 15 17 18 16 14 12 11 10 10 12 11 8 7 9 10 10 8 7 8 9 8 6 7 11 11 14 13 11 13 16 17 19 22 23 27 29
12 12 10 7 5 6 6 7 12 15 18 17 17 14 14 14 13 12 13 11 7 9 10 11 9 8 8 8 9 7 9 10 10 11 11 11 14 14 17 19 22 24 26 28 30
11 10 7 5 6 6 7 9 13 17 19 19 18 18 17 16 14 13 12 9 8 10 11 10 9 8 7 9 8 9 9 9 8 9 11 13 15 17 19 22 24 24 25 27 28
11 9 7 6 6 6 6 9 12 17 18 20 20 17 17 18 15 14 11 8 9 10 12 10 9 7 7 9 9 8 7 7 8 8 10 12 15 17 17 20 21 23 26 29 31
10 9 8 7 6 5 5 7 10 12 15 16 17 16 16 16 14 13 9 9 10 11 11 10 8 6 6 8 8 7 6 5 5 6 9 11 13 15 18 20 23 26 29 31 33
9 9 9 8 7 4 3 4 6 9 11 14 14 16 15 14 14 12 9 10 11 12 11 9 8 7 7 7 7 7 5 4 5 6 7 9 11 15 18 21 23 26 28 31 34
10 10 9 10 9 7 5 4 6 7 9 12 13 14 15 15 15 12 11 12 11 12 11 11 9 8 8 7 7 7 5 4 5 7 10 12 12 15 15 15 20 25 29 32 35
13 11 10 10 11 10 9 9 9 9 10 9 11 11 12 13 13 11 11 12 12 13 12 11 9 9 9 9 9 8 6 6 6 8 10 12 14 16 18 21 23 25 29 33 36
16 14 13 11 11 13 14 14 12 12 10 11 12 10 10 10 11 11 13 14 14 14 13 13 12 12 11 11 11 10 9 8 9 12 13 12 13 16 18 21 24 26 27 31 36
18 18 17 16 15 14 15 17 17 15 14 12 12 12 12 12 14 15 15 16 16 16 16 16 15 14 14 15 14 12 11 13 14 15 15 16 17 15 17 19 22 26 30 32 36
20 20 21 20 19 18 17 17 19 17 19 18 17 15 15 17 15 17 18 19 18 20 19 19 17 16 16 17 17 16 16 17 17 19 18 17 18 15 20 22 24 29 30 34 37
23 22 23 24 24 23 21 18 19 20 22 21 22 20 21 20 21 19 19 20 20 21 22 21 21 20 20 20 20 19 19 20 21 23 22 19 21 24 24 27 29 32 34 35 38
25 24 24 25 27 26 24 24 21 22 24 24 24 23 23 24 24 24 22 21 21 23 23 23 24 22 23 22 22 22 22 23 24 24 27 27 20 27 28 29 33 38 42 43 42
30 28 27 28 27 27 26 28 26 26 27 26 25 25 26 27 26 26 24 23 24 24 24 25 26 25 25 26 25 25 25 26 28 27 28 30 23 31 29 31 33 36 39 44 45
32 31 32 31 29 28 28 30 30 30 30 29 28 27 28 28 29 28 26 27 26 26 26 27 28 27 26 28 28 26 28 30 31 32 29 32 26 32 33 34 37 38 41 45 46
37 36 34 34 33 32 33 32 31 31 33 34 32 30 30 31 32 29 29 29 30 29 30 30 28 29 30 31 30 28 30 31 34 34 34 32 31 28 35 37 40 44 46 47 49
43 41 37 38 35 35 37 34 33 33 35 35 34 32 35 33 32 32 33 31 31 31 32 33 30 32 30 33 36 33 32 32 34 30 39 33 39 32 36 37 39 43 45 48 51
50 46 44 43 40 39 39 35 36 36 38 36 37 36 39 36 36 36 34 35 34 32 34 35 34 33 32 36 39 39 33 34 35 33 37 37 38 38 39 40 40 45 46 47 50
50 49 50 47 46 45 42 41 39 40 42 39 38 38 40 36 39 38 38 36 37 36 36 36 36 37 37 37 42 43 34 35 37 38 38 39 37 40 42 42 40 45 46 49 50
Wind_Direction
193 201 208 205 207 174 172 193 182 157 150 151 148 144 142 144 138 123 120 117 114 107 100 98 91 85 73 58 28 348 332 323 318 312 309 310 310 309 307 307 311 312 311 309 314
200 198 202 210 197 178 181 195 171 163 157 159 158 153 152 156 148 141 129 127 117 106 97 86 73 19 338 324 325 320 316 311 310 309 308 307 307 309 310 313 315 316 315 314 312
195 194 185 202 191 182 193 186 170 171 169 167 170 161 161 159 152 149 130 131 113 85 32 1 326 319 317 315 314 314 310 311 309 307 306 307 308 310 316 318 323 320 317 313 312
192 178 184 187 189 191 205 181 179 178 178 174 175 170 172 165 153 163 136 112 326 321 327 327 318 316 313 311 311 310 312 311 310 308 310 312 314 318 327 325 327 321 317 318 319
177 172 184 188 184 196 203 180 180 188 185 181 179 179 179 173 175 179 207 317 313 315 320 319 314 315 315 314 316 319 318 316 319 319 321 323 329 331 331 331 328 323 322 321 320
164 178 185 188 182 203 193 187 189 192 191 188 185 189 187 183 215 238 303 316 312 312 318 321 323 328 328 325 328 325 322 325 330 329 333 332 337 331 327 329 326 327 323 320 319
170 188 182 191 192 203 195 189 194 198 195 195 193 200 202 202 244 280 303 315 313 318 330 335 333 332 327 326 330 332 332 332 337 336 341 335 340 333 329 329 329 327 324 325 327
179 190 186 196 205 211 203 200 201 206 203 203 203 207 215 234 262 277 299 315 315 323 336 337 330 330 328 333 336 336 340 341 347 338 337 329 347 328 330 330 337 338 339 334 333
182 191 190 201 225 249 232 217 208 208 208 209 211 215 229 245 261 283 301 311 307 322 329 331 331 337 334 333 332 339 341 337 335 335 332 332 349 339 341 352 350 345 342 339 338
190 192 192 213 245 271 265 236 223 216 215 214 221 233 250 260 269 283 297 307 307 319 324 331 334 335 329 327 333 342 338 334 333 339 341 346 350 6 349 352 352 350 348 346 342
191 196 202 225 259 273 267 257 243 234 226 230 241 253 259 263 273 286 297 298 301 318 323 327 327 323 334 331 332 331 332 339 354 349 353 357 2 3 357 360 356 356 356 352 350
198 204 219 241 269 282 279 264 250 238 237 240 249 255 259 263 273 282 289 281 298 315 318 323 323 325 334 323 322 325 335 354 349 6 5 9 6 3 4 1 358 359 359 356 354
214 221 232 247 269 300 288 267 250 244 235 240 247 251 255 264 270 274 272 276 299 312 313 316 315 320 320 315 316 320 332 345 5 13 12 13 12 2 1 0 357 354 353 348 348
218 232 243 253 264 280 276 261 252 242 237 240 248 252 259 266 267 265 257 279 300 312 308 309 306 300 300 303 300 304 320 338 1 12 4 0 8 356 359 353 350 348 347 345 345
223 232 247 257 262 260 258 250 261 266 255 246 250 254 259 260 261 257 257 282 298 308 298 292 291 288 290 287 284 292 303 324 340 348 350 344 353 356 356 354 346 349 348 347 347
228 233 242 256 260 261 256 257 259 267 265 264 261 266 264 260 253 250 267 286 296 301 289 284 278 276 278 276 274 284 287 300 317 324 330 334 347 348 351 349 351 350 351 352 352
237 237 241 247 253 257 255 255 257 262 271 270 264 274 266 263 256 258 270 284 293 297 288 274 270 268 267 270 271 275 283 294 299 302 319 331 338 336 340 341 341 345 353 351 353
245 246 248 250 252 251 255 259 262 262 267 265 266 265 274 273 274 274 277 284 290 291 287 273 268 262 263 263 266 266 273 280 296 307 317 322 323 326 330 335 338 339 341 347 348
248 250 252 253 254 256 255 259 263 268 266 268 266 268 273 279 280 284 287 287 287 288 285 275 265 260 260 259 260 265 270 280 289 298 302 308 308 323 329 333 337 342 341 345 347
252 251 253 253 254 254 256 262 266 267 268 269 270 269 273 273 279 283 286 286 285 286 285 277 266 261 260 261 260 263 271 277 284 291 295 305 318 317 323 331 334 338 341 343 345
253 255 256 255 254 256 257 259 264 265 270 271 274 276 275 276 278 279 283 283 284 282 282 277 270 262 263 262 259 262 269 276 282 288 297 302 317 314 323 328 331 335 336 338 342
255 254 255 257 258 259 260 259 260 262 268 272 274 276 279 280 280 280 281 280 278 279 279 275 271 266 263 260 263 264 269 274 281 288 293 298 316 310 314 321 325 328 330 333 335
255 256 257 258 259 259 259 260 261 262 264 267 271 275 278 280 281 281 281 278 278 277 276 273 272 268 265 262 262 265 269 275 281 287 295 294 315 310 311 318 320 323 326 330 333
257 258 258 260 261 261 261 259 262 261 263 266 268 271 273 275 280 282 279 276 276 276 276 274 273 268 266 264 262 262 267 274 280 286 290 296 296 306 306 312 316 320 325 327 330
260 260 259 262 262 264 263 263 264 264 262 264 266 268 269 270 276 278 278 277 277 276 275 275 272 269 266 264 265 266 270 274 281 287 287 296 293 304 300 306 311 314 319 322 324
261 260 261 261 261 262 265 269 268 266 265 265 266 263 266 271 270 271 273 275 273 272 273 274 274 269 265 265 267 268 271 278 283 284 284 285 292 291 299 303 308 309 314 317 320
261 262 261 260 263 264 265 266 267 267 270 268 267 265 267 268 269 269 270 271 272 272 273 273 275 274 271 267 268 270 274 274 280 286 286 287 291 290 295 299 304 306 312 316 319